Hourly Data Report for June 13, 2021

WESTERN HEAD
NOVA SCOTIA
Current Station Operator: ECCC - MSC

43°59'24.070" N
64°39'51.008" W
10.10 m
8206240
71411
WWE

Download Data

Hourly Data (June 2021)
Hourly Data Report for June 13, 2021
TIME
LST
Temp Definition
°C
Dew Point Definition
°C
Rel Hum Definition
%
Precip. Amount Definition
mm

Wind Dir Definition
10's deg

Wind Spd Definition
km/h
Visibility Definition
km
Stn Press Definition
kPa
Hmdx Definition


Wind Chill Definition


Weather Definition


00:00 8.6 8.6 100 0.0 22 12   100.89     LegendNANA
01:00 7.6 7.6 100 0.0 26 11   100.86     LegendNANA
02:00 9.0 LegendMM LegendMM 0.0 25 8   100.86     LegendNANA
03:00 9.9 LegendMM LegendMM 0.0 23 13   100.86     LegendNANA
04:00 9.2 9.2 100 0.0 20 15   100.85     LegendNANA
05:00 9.5 LegendMM LegendMM 0.0 23 16   100.83     LegendNANA
06:00 10.2 LegendMM LegendMM 0.2 22 13   100.82     LegendNANA
07:00 11.3 LegendMM LegendMM 0.0 22 15   100.83     LegendNANA
08:00 13.3 LegendMM LegendMM 0.0 21 12   100.86     LegendNANA
09:00 13.3 10.9 85 0.0 20 11   100.86     LegendNANA
10:00 13.9 11.0 82 0.0 22 7   100.86     LegendNANA
11:00 14.5 11.4 82 0.0 20 15   100.87     LegendNANA
12:00 14.3 10.9 80 0.0 20 21   100.87     LegendNANA
13:00 15.3 11.6 79 0.0 23 10   100.88     LegendNANA
14:00 12.0 10.4 90 0.0 19 19   100.87     LegendNANA
15:00 13.3 11.0 86 0.0 20 20   100.89     LegendNANA
16:00 13.5 10.3 81 0.0 20 12   100.89     LegendNANA
17:00 16.9 9.8 63 0.0 20 10   100.91     LegendNANA
18:00 25.0 4.2 26 0.0 31 12   100.95     LegendNANA
19:00 11.2 9.4 89 0.0 22 7   101.04     LegendNANA
20:00 10.3 9.0 92 0.0 22 8   101.10     LegendNANA
21:00 8.5 7.2 92 0.0 22 5   101.18     LegendNANA
22:00 11.3 8.0 80 0.0 34 7   101.23     LegendNANA
23:00 9.0 7.4 90 0.0 1 3   101.30     LegendNANA

Notes on Data Quality.

Legend

  • E = Estimated
  • M = Missing
  • NA = Not Available*
  • [empty] = Indicates an unobserved value
Date modified: